Regional Weather Roundup
Issued by NWS

Home | Current Version | Previous Version | Text Only | Print | Product List | Glossary On
Versions: 1 2 3 4 5 6 7 8 9 10 11 12 13 14 15 16 17 18 19 20 21 22 23 24 25 26 27 28 29 30 31 32 33 34 35 36 37 38 39 40 41 42 43 44 45 46 47 48 49 50
521
ASUS42 KFFC 060703
RWRGA
WEATHER ROUNDUP FOR GEORGIA
NATIONAL WEATHER SERVICE PEACHTREE CITY GA
200 AM EST SAT FEB 06 2016

NOTE: "FAIR" INDICATES FEW OR NO CLOUDS BELOW 12,000 FEET WITH NO
SIGNIFICANT WEATHER AND/OR OBSTRUCTIONS TO VISIBILITY.

* = USE WITH CAUTION. THE STATIONS MARKED WITH AN ASTERISK MAY NOT
REPORT WEATHER SUCH AS PRECIPITATION, FOG, OR THUNDER AND ARE NOT
QUALITY CONTROLLED BY NWS.

THE REMARK "TC" DENOTES TEMPERATURE READING IN DEGREES CELSIUS.

GAZ001>058-060800-
NORTH GEORGIA

CITY           SKY/WX    TMP DP  RH WIND       PRES   REMARKS
ATLANTA        CLOUDY    35  17  47 NW6       30.35F WCI  30
ATHENS         CLOUDY    30  26  85 CALM      30.37S
CHAMBLEE       CLOUDY    30  22  72 CALM      30.35F
PEACHTREE CITY CLOUDY    28  24  85 CALM      30.37S
ROME           MOCLDY    28  22  78 CALM      30.38S
WEST ATLANTA   CLOUDY    30  24  78 CALM      30.37S
GAINESVILLE    CLOUDY    36  16  44 E8        30.36F WCI  30
CARTERSVILLE   PTCLDY    27  21  78 CALM      30.38F


CITY           SKY/WX    TMP DP  RH WIND       PRES   REMARKS
MARIETTA       CLOUDY    31  20  63 CALM      30.35F
BLAIRSVILLE*     N/A     26   7  45 CALM      30.35S
$$

GAZ059>098-102>109-060800-
CENTRAL GEORGIA

CITY           SKY/WX    TMP DP  RH WIND       PRES   REMARKS
AUGUSTA-BUSH   CLEAR     28  27  96 W3        30.38F
AUGUSTA-DANIEL CLEAR     39  20  46 E3        30.37F
COLUMBUS       PTCLDY    34  19  54 NW3       30.37S
MACON          CLEAR     30  28  92 W5        30.36F WCI  25
ROBINS AFB     CLEAR     36  24  63 N1        30.36S


CITY           SKY/WX    TMP DP  RH WIND       PRES   REMARKS
LAGRANGE*      PTCLDY    30  30  98 CALM      30.37S
SYLVANIA*      CLEAR     32  32  99 CALM      30.38S
MILLEDGEVILLE* CLEAR     32  28  86 CALM      30.37F
$$

GAZ099>101-110>166-060800-
SOUTH GEORGIA

CITY           SKY/WX    TMP DP  RH WIND       PRES   REMARKS
SAVANNAH       PTCLDY    40  27  59 NE5       30.37F
VALDOSTA       CLEAR     36  32  85 N6        30.30F WCI  31
ALMA           CLEAR     33  32  96 CALM      30.34F
ST SIMONS      CLEAR     42  36  79 N8        30.31F
FT STEWART     PTCLDY    32  29  90 CALM      30.34F
ALBANY         CLEAR     31  28  89 NW3       30.37S
HUNTER AFB     PTCLDY    41  28  59 N2        30.34F
MOODY AFB      CLEAR     35  31  85 N5        30.30F WCI  31
BRUNSWICK      CLEAR     41  34  75 N7        30.33F


CITY           SKY/WX    TMP DP  RH WIND       PRES   REMARKS
BAINBRIDGE*    PTCLDY    36  34  93 CALM      30.35R
MOULTRIE*      CLEAR     37  30  75 CALM      30.33F
VIDALIA*       CLEAR     36  30  80 NE3       30.36F
WAYCROSS*      CLEAR     39  35  84 NE6       30.32F WCI  35
DOUGLAS*       CLEAR     39  32  75 E6        30.35F WCI  35
$$




USA.gov is the U.S. government's official web portal to all federal, state and local government web resources and services.